SCP
0 -0 -0 -0 -0 -0 -0 -0 -0 -0 -0 -0 -0 -0 -0 -0 -0 -0 -0 -0 -0 -0 -0 -0 -0 -0 -0 -0 -0 -0 -0 -0 0 0 0 0 0 0 0 -0 -0 -0 0
0 -0 -0 -0 -0 -0 -0 -0 -0 -0 -0 -0 -0 -0 -0 -0 -0 -0 -0 -0 -0 -0 -0 -0 -0 -0 -0 -0 -0 -0 -0 0 0 0 -0 -0 0 0 0 0 0 0 0
0 -0 -0 -0 -0 -0 -0 -0 -0 -0 -0 -0 0 -0 -0 -0 -0 -0 -0 -0 -0 -0 -0 -0 -0 -0 -0 -0 -0 -0 0 0 0 0 -0 0 0 0 0 0 0 0 0
0 0 0 -0 -0 -0 -0 -0 -0 -0 -0 -0 0 -0 -0 -0 -0 -0 -0 -0 -0 0 -0 -0 -0 -0 -0 -0 -0 0 0 0 -0 -0 -0 0 0 0 0 0 0 0 0
0 0 0 -0 -0 -0 -0 -0 -0 0 0 0 0 -0 -0 -0 -0 -0 0 0 0 -0 0 -0 -0 -0 0 0 0 0 0 0 0 0 0 0 0 0 0 0 0 0 0
0 0 0 0 0 -0 -0 -0 -0 0 0 0 0 0 0 -0 0 -0 0 0 0 -0 -0 0 -0 -0 0 0 0 0 0 0 0 0 0 0 0 0 0 0 0 0 0
0 0 0 0 0 0 -0 -0 -0 0 0 0 0 0 0 0 0 0 0 0 0 0 0 0 0 0 0 0 0 0 0 0 0 0 0 0 0 0 0 0 0 0 0
0 0 0 0 0 0 0 0 0 -0 0 0 0 0 0 0 0 0 0 0 0 0 0 0 0 0 0 0 0 0 0 0 0 0 0 0 0 0 0 0 0 0 0
0 0 0 0 0 0 0 0 0 0 0 0 0 0 0 0 0 0 0 0 0 0 0 0 0 0 0 0 0 0 0 0 0 0 0 0 0 0 0 0 0 0 0
0 0 0 0 0 0 0 0 0 0 0 0 0 0 0 0 0 0 0 0 0 0 0 0 0 0 0 0 0 0 0 0 0 0 0 0 0 0 0 0 0 0 0
0 0 0 0 0 0 0 0 0 0 0 0 0 0 0 0 0 0 0 0 0 0 0 0 0 0 0 0 0 0 0 0 0 0 0 0 0 0 0 0 0 0 0
0 0 0 0 0 0 0 0 0 0 0 0 0 0 0 0 0 0 0 0 0 0 0 0 0 0 0 0 0 0 0 0 0 0 0 0 0 0 0 0 0 0 0
0 0 0 0 0 0 0 0 0 0 0 0 0 0 0 0 0 0 0 0 0 0 0 0 0 0 0 0 0 0 0 0 0 0 0 0 0 0 0 0 0 0 0
0 0 0 0 0 0 0 0 0 0 0 0 0 0 0 0 0 0 0 0 0 0 0 0 0 0 0 0 0 0 0 0 0 0 0 0 0 0 0 0 0 0 0
0 0 0 0 0 0 0 0 0 0 0 0 0 0 0 0 0 0 0 0 0 0 0 0 0 0 0 0 0 0 0 0 0 0 0 0 0 0 0 0 0 0 0
0 0 0 0 0 0 0 0 0 0 0 0 0 0 0 0 0 0 0 0 0 0 0 0 0 0 0 0 0 0 0 0 0 0 0 0 0 0 0 0 0 0 0
0 0 0 0 0 0 0 0 0 0 0 0 0 0 0 0 0 0 0 0 0 0 0 0 0 0 0 0 0 0 0 0 0 0 0 0 0 0 0 0 0 0 0
0 0 0 0 0 0 0 0 0 0 0 0 0 0 0 0 0 0 0 0 0 0 0 0 0 0 0 0 0 0 0 0 0 0 0 0 0 0 0 0 0 0 0
0 0 0 0 0 0 0 0 0 0 0 0 0 0 0 0 0 0 0 0 0 0 0 0 0 0 0 0 0 0 0 0 0 0 0 0 0 0 0 0 0 0 0
0 0 0 0 0 0 0 0 0 0 0 0 0 0 0 0 0 0 0 0 0 0 0 0 0 0 0 0 0 0 0 0 0 0 0 0 0 0 0 0 0 0 0
0 0 0 0 0 0 0 0 0 0 0 0 0 0 0 0 0 0 0 0 0 0 0 0 0 0 0 0 0 0 0 0 0 0 0 0 0 0 0 0 0 0 0
0 0 0 0 0 0 0 0 0 0 0 0 0 0 0 0 0 0 0 0 0 0 0 0 0 0 0 0 0 0 0 0 0 0 0 0 0 0 0 0 0 0 0
0 0 0 0 0 0 0 0 0 0 0 0 0 0 0 0 0 0 0 0 0 0 0 0 0 0 0 0 0 0 0 0 0 0 0 0 0 0 0 0 0 0 0
0 0 0 0 0 0 0 0 0 0 0 0 0 0 0 0 0 0 0 0 0 0 0 0 0 0 0 0 0 0 0 0 0 0 0 0 0 0 0 0 0 0 0
0 0 0 0 0 0 0 0 0 0 0 0 0 0 0 0 0 0 0 0 0 0 0 0 0 0 0 0 0 0 0 0 0 0 0 0 0 0 0 0 0 0 0
0 0 0 0 0 0 0 0 0 0 0 0 0 0 0 0 0 0 0 0 0 0 0 0 0 0 0 0 0 0 0 0 0 0 0 0 0 0 0 0 0 0 0
Wind_Speed_500mb
27 28 46 48 48 47 44 39 37 34 32 31 30 29 28 28 27 26 25 25 25 26 25 21 22 20 19 16 14 12 11 10 10 11 10 10 11 12 10 11 15 18 16
14 28 45 47 49 48 45 41 37 35 33 33 33 31 30 29 27 25 24 24 24 23 21 19 17 15 14 12 11 11 10 11 11 10 9 9 12 10 7 7 8 10 12
20 29 44 46 49 49 47 44 41 38 37 36 34 33 32 29 27 25 24 23 22 21 20 17 15 13 13 11 9 9 9 11 11 10 9 9 7 10 8 5 6 6 7
16 30 42 45 49 51 49 47 45 43 41 38 37 34 32 29 27 25 23 22 22 20 18 14 16 16 11 6 5 9 10 10 12 14 11 3 2 8 9 6 7 6 8
19 27 40 43 48 53 51 49 49 46 43 39 37 34 32 29 27 25 23 23 22 20 20 23 18 9 7 6 7 9 12 12 13 17 16 10 12 14 13 12 10 14 12
23 28 40 46 49 53 53 52 51 49 46 41 37 34 31 29 28 27 28 26 25 27 26 24 17 16 16 14 13 14 16 17 17 21 23 20 18 24 22 19 16 16 15
23 32 36 49 52 55 55 53 52 52 50 45 39 34 34 32 35 34 33 30 30 29 27 25 24 22 20 20 18 15 16 17 21 26 25 21 18 18 17 14 13 13 13
31 31 36 47 54 58 57 55 53 55 52 47 42 41 46 40 39 36 34 34 33 31 31 29 26 26 25 23 18 16 16 18 23 24 22 19 16 14 13 11 10 11 12
39 38 40 45 56 60 59 58 55 52 53 50 49 51 49 47 38 38 38 36 35 34 34 31 30 28 25 21 17 16 15 17 18 21 17 14 13 12 11 10 10 11 13
43 45 46 48 52 64 65 63 60 55 54 55 56 55 50 44 37 38 39 39 39 38 35 33 30 28 23 20 17 17 17 17 17 19 14 13 13 11 11 10 10 11 12
50 52 52 54 56 61 71 70 64 63 62 58 59 55 56 46 40 41 40 41 42 39 37 33 31 28 25 23 21 20 19 19 20 17 14 13 12 11 11 12 12 12 11
61 60 56 58 60 63 74 75 73 71 65 67 66 63 63 49 45 44 44 45 44 40 38 34 33 31 28 26 23 23 21 20 20 17 14 14 12 11 11 11 13 11 9
63 65 63 62 65 63 77 82 81 79 77 75 70 69 67 56 52 50 48 47 45 42 39 38 36 34 30 27 24 23 22 22 21 16 14 14 12 12 11 11 11 10 8
68 68 71 70 72 67 75 85 87 87 83 81 76 73 72 63 60 54 48 46 45 43 41 41 39 37 33 30 27 24 23 22 20 16 15 14 13 12 12 10 11 9 12
70 73 75 78 79 73 76 81 87 86 87 85 81 79 77 68 63 55 46 47 46 46 44 42 42 38 34 30 27 25 24 23 23 18 16 15 14 14 14 12 11 13 16
73 75 74 81 81 82 79 84 89 89 90 88 86 82 78 70 65 57 50 51 51 49 46 44 40 36 34 32 29 28 26 25 24 21 19 17 16 16 15 13 14 16 19
75 79 81 80 85 86 84 86 93 97 97 94 91 85 81 73 68 60 56 55 53 50 48 46 42 39 36 34 32 30 28 26 24 23 20 19 19 18 17 15 18 19 19
82 82 84 83 90 89 86 87 94 102 102 99 96 89 85 77 70 64 61 59 56 54 50 46 43 40 39 36 32 30 28 26 25 24 23 20 20 19 19 19 21 20 20
91 92 91 90 93 94 88 88 92 102 103 101 99 92 87 79 72 67 65 62 59 55 52 48 46 42 39 36 33 31 29 27 26 25 26 23 22 22 20 20 21 20 24
91 96 99 98 99 97 92 90 93 100 104 105 102 91 85 78 74 70 68 65 63 58 53 52 48 46 42 38 35 31 30 28 28 27 27 26 24 24 20 20 20 25 27
80 94 98 99 104 104 104 102 102 104 108 107 101 91 87 84 79 72 71 71 68 61 58 53 52 49 46 42 37 34 32 32 32 31 31 31 27 26 23 21 23 25 28
88 86 97 101 106 112 112 107 103 101 105 104 100 96 92 86 79 77 77 76 71 66 62 60 57 56 50 47 42 33 22 32 34 33 34 32 28 27 21 22 24 26 27
94 98 97 100 104 111 115 110 107 98 99 102 103 100 95 86 83 83 81 78 73 68 66 63 60 59 54 54 50 24 17 19 29 34 37 32 33 33 25 25 27 27 27
90 87 91 96 105 110 118 118 114 114 115 117 113 105 100 93 90 89 86 82 76 71 67 65 64 60 58 57 56 54 31 18 17 19 31 33 34 33 32 25 25 26 27
73 80 86 95 107 113 120 119 115 115 110 102 107 109 106 101 98 96 90 86 83 80 74 72 71 66 62 60 60 58 54 38 31 19 18 25 30 29 28 23 23 26 25
14 48 61 79 103 112 118 118 118 115 108 106 100 108 112 108 102 98 92 89 85 80 76 75 69 64 61 58 56 54 52 45 43 34 32 23 25 27 25 19 21 20 19
Wind_Direction_500mb
186 182 185 183 183 179 176 171 168 167 166 165 161 157 154 150 147 142 139 139 139 138 131 127 130 130 131 128 130 145 147 143 121 97 79 70 66 68 68 47 32 33 41
180 178 187 187 187 184 181 178 174 174 173 171 167 162 158 155 151 147 144 144 147 147 148 142 136 132 129 127 128 126 124 118 113 96 75 62 61 29 34 36 36 31 29
169 182 188 190 190 191 189 185 183 183 182 179 175 170 167 165 162 160 159 159 157 155 154 154 154 149 138 134 138 140 133 133 127 109 80 78 5 345 326 336 348 355 350
190 186 191 193 193 195 194 191 191 191 189 186 183 180 178 176 174 174 174 174 172 172 173 177 161 159 164 176 182 162 164 158 150 138 103 133 200 308 287 283 299 318 304
213 199 198 198 195 197 199 197 196 196 195 193 189 187 187 189 186 188 190 187 189 185 185 173 174 197 248 255 244 213 196 185 173 167 171 180 197 225 270 294 280 272 281
225 215 207 203 202 201 200 201 200 200 199 198 195 193 194 201 200 200 205 195 186 178 181 193 215 240 260 269 258 236 218 207 201 204 211 203 217 245 269 280 284 277 278
239 226 216 208 206 206 205 204 203 202 202 200 196 197 191 191 195 190 198 197 202 208 218 221 237 250 260 266 259 233 218 211 208 217 232 235 253 261 268 279 284 287 287
251 238 222 215 211 210 210 210 209 204 203 201 197 194 197 203 202 202 207 209 213 218 227 234 244 254 261 260 241 222 211 209 213 225 232 240 246 254 270 278 284 288 290
238 230 226 217 215 215 215 213 214 209 204 202 199 201 207 217 211 206 209 214 220 227 234 240 246 252 253 243 222 210 201 208 216 229 229 231 237 247 256 269 279 287 288
229 230 227 224 217 214 215 215 214 214 206 206 205 205 210 221 211 211 216 221 226 231 236 239 241 240 227 217 205 202 204 215 223 236 243 237 240 253 265 272 280 281 283
218 229 226 228 223 220 217 214 211 213 212 211 211 209 215 217 216 219 223 226 229 232 234 234 231 220 209 201 202 210 216 220 230 236 232 238 247 256 267 271 268 272 279
215 224 230 231 230 223 218 213 210 210 211 212 214 212 219 220 222 226 226 228 231 231 230 222 214 209 205 207 208 215 220 221 227 230 228 232 240 247 253 260 262 266 279
225 221 230 237 233 229 219 213 211 211 212 211 214 215 218 225 224 228 230 230 230 228 219 210 208 208 210 212 213 215 216 221 228 227 229 234 239 242 242 249 261 274 294
221 224 232 235 238 235 227 216 213 212 211 215 216 216 221 227 228 230 232 231 229 222 213 208 209 210 210 213 211 214 218 226 234 233 231 230 235 239 244 241 258 274 293
228 225 230 234 237 236 233 223 219 218 216 219 219 218 224 231 231 234 231 226 224 217 214 213 213 213 212 212 214 217 220 226 235 232 235 234 232 238 240 248 256 285 297
240 236 238 236 236 237 236 224 220 220 218 222 222 222 227 233 234 235 231 226 220 216 217 217 218 216 214 211 212 216 220 225 232 233 229 233 232 232 238 242 269 283 293
240 241 238 240 238 235 237 229 223 222 224 223 225 224 229 233 234 235 232 226 220 216 216 216 217 215 215 212 211 214 219 222 229 239 234 231 232 231 231 249 274 284 286
243 239 238 240 239 236 235 233 225 224 224 225 226 230 232 233 231 233 232 225 218 216 216 217 217 216 214 213 213 216 220 225 229 232 240 237 233 232 235 259 274 280 289
247 245 239 238 241 237 234 232 227 226 226 228 229 233 232 228 228 230 229 222 218 217 218 216 215 216 218 215 214 216 219 223 228 232 239 240 234 232 243 261 273 274 291
242 245 243 238 238 237 231 226 226 227 228 229 229 231 227 225 228 226 222 218 218 217 218 217 214 215 215 215 214 216 223 223 227 231 238 235 235 241 250 264 268 283 293
247 240 238 233 231 230 225 223 226 223 225 228 228 229 225 225 225 223 218 215 217 217 218 218 215 214 213 212 210 212 220 224 229 229 234 233 230 237 252 262 279 289 295
247 244 235 236 229 228 229 230 231 228 225 227 229 226 225 224 224 222 218 216 216 214 212 215 217 215 210 212 211 208 212 227 228 228 228 230 231 239 256 265 279 288 293
246 245 239 233 233 227 228 226 223 222 224 224 226 226 224 223 223 221 219 217 217 216 216 217 217 217 218 212 209 206 193 207 209 223 227 227 233 243 264 269 282 288 299
246 242 242 237 233 229 224 225 225 226 222 225 227 225 223 222 222 221 220 218 218 217 217 219 219 219 218 218 212 213 217 188 184 187 223 228 235 239 253 266 278 288 298
250 245 243 240 234 227 225 227 228 226 230 228 224 224 222 221 220 220 218 216 216 216 217 217 216 215 217 217 219 218 219 220 221 201 204 215 228 236 251 262 274 291 297
221 235 235 239 229 226 225 226 227 228 227 222 222 222 221 221 220 219 219 217 218 219 219 218 217 218 220 219 221 224 228 224 226 221 222 220 229 247 255 263 273 284 291
Wind_Speed_850mb
27 28 46 48 48 47 44 39 37 34 32 31 30 29 28 28 27 26 25 25 25 26 25 21 22 20 19 16 14 12 11 10 10 11 10 10 11 12 10 11 15 18 16
14 28 45 47 49 48 45 41 37 35 33 33 33 31 30 29 27 25 24 24 24 23 21 19 17 15 14 12 11 11 10 11 11 10 9 9 12 10 7 7 8 10 12
20 29 44 46 49 49 47 44 41 38 37 36 34 33 32 29 27 25 24 23 22 21 20 17 15 13 13 11 9 9 9 11 11 10 9 9 7 10 8 5 6 6 7
16 30 42 45 49 51 49 47 45 43 41 38 37 34 32 29 27 25 23 22 22 20 18 14 16 16 11 6 5 9 10 10 12 14 11 3 2 8 9 6 7 6 8
19 27 40 43 48 53 51 49 49 46 43 39 37 34 32 29 27 25 23 23 22 20 20 23 18 9 7 6 7 9 12 12 13 17 16 10 12 14 13 12 10 14 12
23 28 40 46 49 53 53 52 51 49 46 41 37 34 31 29 28 27 28 26 25 27 26 24 17 16 16 14 13 14 16 17 17 21 23 20 18 24 22 19 16 16 15
23 32 36 49 52 55 55 53 52 52 50 45 39 34 34 32 35 34 33 30 30 29 27 25 24 22 20 20 18 15 16 17 21 26 25 21 18 18 17 14 13 13 13
31 31 36 47 54 58 57 55 53 55 52 47 42 41 46 40 39 36 34 34 33 31 31 29 26 26 25 23 18 16 16 18 23 24 22 19 16 14 13 11 10 11 12
39 38 40 45 56 60 59 58 55 52 53 50 49 51 49 47 38 38 38 36 35 34 34 31 30 28 25 21 17 16 15 17 18 21 17 14 13 12 11 10 10 11 13
43 45 46 48 52 64 65 63 60 55 54 55 56 55 50 44 37 38 39 39 39 38 35 33 30 28 23 20 17 17 17 17 17 19 14 13 13 11 11 10 10 11 12
50 52 52 54 56 61 71 70 64 63 62 58 59 55 56 46 40 41 40 41 42 39 37 33 31 28 25 23 21 20 19 19 20 17 14 13 12 11 11 12 12 12 11
61 60 56 58 60 63 74 75 73 71 65 67 66 63 63 49 45 44 44 45 44 40 38 34 33 31 28 26 23 23 21 20 20 17 14 14 12 11 11 11 13 11 9
63 65 63 62 65 63 77 82 81 79 77 75 70 69 67 56 52 50 48 47 45 42 39 38 36 34 30 27 24 23 22 22 21 16 14 14 12 12 11 11 11 10 8
68 68 71 70 72 67 75 85 87 87 83 81 76 73 72 63 60 54 48 46 45 43 41 41 39 37 33 30 27 24 23 22 20 16 15 14 13 12 12 10 11 9 12
70 73 75 78 79 73 76 81 87 86 87 85 81 79 77 68 63 55 46 47 46 46 44 42 42 38 34 30 27 25 24 23 23 18 16 15 14 14 14 12 11 13 16
73 75 74 81 81 82 79 84 89 89 90 88 86 82 78 70 65 57 50 51 51 49 46 44 40 36 34 32 29 28 26 25 24 21 19 17 16 16 15 13 14 16 19
75 79 81 80 85 86 84 86 93 97 97 94 91 85 81 73 68 60 56 55 53 50 48 46 42 39 36 34 32 30 28 26 24 23 20 19 19 18 17 15 18 19 19
82 82 84 83 90 89 86 87 94 102 102 99 96 89 85 77 70 64 61 59 56 54 50 46 43 40 39 36 32 30 28 26 25 24 23 20 20 19 19 19 21 20 20
91 92 91 90 93 94 88 88 92 102 103 101 99 92 87 79 72 67 65 62 59 55 52 48 46 42 39 36 33 31 29 27 26 25 26 23 22 22 20 20 21 20 24
91 96 99 98 99 97 92 90 93 100 104 105 102 91 85 78 74 70 68 65 63 58 53 52 48 46 42 38 35 31 30 28 28 27 27 26 24 24 20 20 20 25 27
80 94 98 99 104 104 104 102 102 104 108 107 101 91 87 84 79 72 71 71 68 61 58 53 52 49 46 42 37 34 32 32 32 31 31 31 27 26 23 21 23 25 28
88 86 97 101 106 112 112 107 103 101 105 104 100 96 92 86 79 77 77 76 71 66 62 60 57 56 50 47 42 33 22 32 34 33 34 32 28 27 21 22 24 26 27
94 98 97 100 104 111 115 110 107 98 99 102 103 100 95 86 83 83 81 78 73 68 66 63 60 59 54 54 50 24 17 19 29 34 37 32 33 33 25 25 27 27 27
90 87 91 96 105 110 118 118 114 114 115 117 113 105 100 93 90 89 86 82 76 71 67 65 64 60 58 57 56 54 31 18 17 19 31 33 34 33 32 25 25 26 27
73 80 86 95 107 113 120 119 115 115 110 102 107 109 106 101 98 96 90 86 83 80 74 72 71 66 62 60 60 58 54 38 31 19 18 25 30 29 28 23 23 26 25
14 48 61 79 103 112 118 118 118 115 108 106 100 108 112 108 102 98 92 89 85 80 76 75 69 64 61 58 56 54 52 45 43 34 32 23 25 27 25 19 21 20 19
Wind_Direction_850mb
186 182 185 183 183 179 176 171 168 167 166 165 161 157 154 150 147 142 139 139 139 138 131 127 130 130 131 128 130 145 147 143 121 97 79 70 66 68 68 47 32 33 41
180 178 187 187 187 184 181 178 174 174 173 171 167 162 158 155 151 147 144 144 147 147 148 142 136 132 129 127 128 126 124 118 113 96 75 62 61 29 34 36 36 31 29
169 182 188 190 190 191 189 185 183 183 182 179 175 170 167 165 162 160 159 159 157 155 154 154 154 149 138 134 138 140 133 133 127 109 80 78 5 345 326 336 348 355 350
190 186 191 193 193 195 194 191 191 191 189 186 183 180 178 176 174 174 174 174 172 172 173 177 161 159 164 176 182 162 164 158 150 138 103 133 200 308 287 283 299 318 304
213 199 198 198 195 197 199 197 196 196 195 193 189 187 187 189 186 188 190 187 189 185 185 173 174 197 248 255 244 213 196 185 173 167 171 180 197 225 270 294 280 272 281
225 215 207 203 202 201 200 201 200 200 199 198 195 193 194 201 200 200 205 195 186 178 181 193 215 240 260 269 258 236 218 207 201 204 211 203 217 245 269 280 284 277 278
239 226 216 208 206 206 205 204 203 202 202 200 196 197 191 191 195 190 198 197 202 208 218 221 237 250 260 266 259 233 218 211 208 217 232 235 253 261 268 279 284 287 287
251 238 222 215 211 210 210 210 209 204 203 201 197 194 197 203 202 202 207 209 213 218 227 234 244 254 261 260 241 222 211 209 213 225 232 240 246 254 270 278 284 288 290
238 230 226 217 215 215 215 213 214 209 204 202 199 201 207 217 211 206 209 214 220 227 234 240 246 252 253 243 222 210 201 208 216 229 229 231 237 247 256 269 279 287 288
229 230 227 224 217 214 215 215 214 214 206 206 205 205 210 221 211 211 216 221 226 231 236 239 241 240 227 217 205 202 204 215 223 236 243 237 240 253 265 272 280 281 283
218 229 226 228 223 220 217 214 211 213 212 211 211 209 215 217 216 219 223 226 229 232 234 234 231 220 209 201 202 210 216 220 230 236 232 238 247 256 267 271 268 272 279
215 224 230 231 230 223 218 213 210 210 211 212 214 212 219 220 222 226 226 228 231 231 230 222 214 209 205 207 208 215 220 221 227 230 228 232 240 247 253 260 262 266 279
225 221 230 237 233 229 219 213 211 211 212 211 214 215 218 225 224 228 230 230 230 228 219 210 208 208 210 212 213 215 216 221 228 227 229 234 239 242 242 249 261 274 294
221 224 232 235 238 235 227 216 213 212 211 215 216 216 221 227 228 230 232 231 229 222 213 208 209 210 210 213 211 214 218 226 234 233 231 230 235 239 244 241 258 274 293
228 225 230 234 237 236 233 223 219 218 216 219 219 218 224 231 231 234 231 226 224 217 214 213 213 213 212 212 214 217 220 226 235 232 235 234 232 238 240 248 256 285 297
240 236 238 236 236 237 236 224 220 220 218 222 222 222 227 233 234 235 231 226 220 216 217 217 218 216 214 211 212 216 220 225 232 233 229 233 232 232 238 242 269 283 293
240 241 238 240 238 235 237 229 223 222 224 223 225 224 229 233 234 235 232 226 220 216 216 216 217 215 215 212 211 214 219 222 229 239 234 231 232 231 231 249 274 284 286
243 239 238 240 239 236 235 233 225 224 224 225 226 230 232 233 231 233 232 225 218 216 216 217 217 216 214 213 213 216 220 225 229 232 240 237 233 232 235 259 274 280 289
247 245 239 238 241 237 234 232 227 226 226 228 229 233 232 228 228 230 229 222 218 217 218 216 215 216 218 215 214 216 219 223 228 232 239 240 234 232 243 261 273 274 291
242 245 243 238 238 237 231 226 226 227 228 229 229 231 227 225 228 226 222 218 218 217 218 217 214 215 215 215 214 216 223 223 227 231 238 235 235 241 250 264 268 283 293
247 240 238 233 231 230 225 223 226 223 225 228 228 229 225 225 225 223 218 215 217 217 218 218 215 214 213 212 210 212 220 224 229 229 234 233 230 237 252 262 279 289 295
247 244 235 236 229 228 229 230 231 228 225 227 229 226 225 224 224 222 218 216 216 214 212 215 217 215 210 212 211 208 212 227 228 228 228 230 231 239 256 265 279 288 293
246 245 239 233 233 227 228 226 223 222 224 224 226 226 224 223 223 221 219 217 217 216 216 217 217 217 218 212 209 206 193 207 209 223 227 227 233 243 264 269 282 288 299
246 242 242 237 233 229 224 225 225 226 222 225 227 225 223 222 222 221 220 218 218 217 217 219 219 219 218 218 212 213 217 188 184 187 223 228 235 239 253 266 278 288 298
250 245 243 240 234 227 225 227 228 226 230 228 224 224 222 221 220 220 218 216 216 216 217 217 216 215 217 217 219 218 219 220 221 201 204 215 228 236 251 262 274 291 297
221 235 235 239 229 226 225 226 227 228 227 222 222 222 221 221 220 219 219 217 218 219 219 218 217 218 220 219 221 224 228 224 226 221 222 220 229 247 255 263 273 284 291